Location: Claflin County Park
(44.8478°N, 87.5507°W)
Time: 03:25:32
(UTC+00:00)

USA 234 - Pass Details

Date: 16 March 2026
Orbit: 1102 x 1106 km, 123.0° (Epoch: 4 January)

Event Time Altitude Azimuth Distance (km) Brightness Sun altitude
Exits shadow 03:01:30 53° 31° (NNE) 1,339 3.6 -31.9°
Maximum altitude 03:01:38 53° 27° (NNE) 1,338 3.6 -31.9°
Drops below altitude 10° 03:07:57 10° 313° (NW) 2,970 6.4 -32.8°
Sets 03:10:29 0° 309° (NW) 3,930 7.3 -33.2°
